Voltar ao catálogo

CZ-3C DEB

LostGTO
NORAD 42479·DEBRIS·🇨🇳 China

Lançado Feb 24, 2012 de Xichang Satellite Launch Center

Loading…

TLE

ObsoletoSource: Space-Track

Época: Mar 18, 2018, 02:12 UTC

1 42479U 12008AP  18077.09215750  .00000125  00000-0  80040-3 0  9992
2 42479  20.8798 280.3968 7169751 234.4619  36.4418  2.32044689 41787

Acompanhe CZ-3C DEB em tempo real com AllMySat

Download on the App Store